(182) Elsa
ephemeris date magn radius delta ra dec elong phase
Opposition15 Jul 202612.22.608 AU1.592 AU19h41m-21°44'179.1°0.4°
Today27 Jul 202612.62.588 AU1.588 AU19h29m-22°19'167.0°5.0°
(182) Elsa - 2026-07-27
astro.vanbuitenen.nl


 
-1 year
-1 month
-1 day
Now
+1 day
+1 month
+1 year

The interactive orbit chart above shows the body's path through the solar system and its position at the given date. Green and blue lines are shown perpendicular to the ecliptic plane: Green if the path is above the ecliptic plane, blue if it is below. (Left-click and drag to rotate the view; Right-click and drag to move the view; Use scroll wheel to zoom in our out.)

The orbital elements of Elsa are:

            e (Eccentricity)                : 0.1863813
            a (Semimajor axis)              : 2.4163026
            i (Inclination)                 : 2.00559
            Ω (Longitude of ascending node) : 107.16319
            ω (Argument of perihelion)      : 310.58149
            M (Mean anomaly)                : 244.86841
            Epoch                           : 2026 Jun 09

            L (Longitude of perihelion)     : 57.76203
            B (Latitude of perihelion)      : -1.52308
            P (Orbital period in years)     : 3.76            
        

The light curve chart below shows the estimated development of the minor planet's magnitude.


The all-sky chart below shows the path of the minor planet over the same period as the light curve. The current position is marked yellow.





The following chart shows the path of the minor planet in the next few days. The field of view is optimized for (~10x50) binoculars and finderscopes.




Ephemerides:
Date       Time       RA (2000)    DEC (2000)    delta   radius  elong  phase   PA    magn
2026-07-27 00:00 UT   19 29 49.2   -22 19 48     1.588    2.588  167.0    5.0    79   12.6 
2026-07-27 21:18 UT   19 28 56.3   -22 22 18     1.589    2.586  166.0    5.5    79   12.6 
2026-07-28 00:00 UT   19 28 49.7   -22 22 37     1.590    2.586  165.9    5.5    79   12.6 
2026-07-29 00:00 UT   19 27 50.7   -22 25 24     1.591    2.584  164.7    6.0    80   12.6 
2026-07-30 00:00 UT   19 26 52.6   -22 28 07     1.593    2.583  163.5    6.4    80   12.6 
2026-07-31 00:00 UT   19 25 55.2   -22 30 46     1.595    2.581  162.3    6.9    80   12.7 
2026-08-01 00:00 UT   19 24 58.7   -22 33 22     1.598    2.579  161.1    7.3    80   12.7 
2026-08-02 00:00 UT   19 24 03.1   -22 35 55     1.600    2.577  159.9    7.8    80   12.7 
2026-08-03 00:00 UT   19 23 08.5   -22 38 24     1.603    2.575  158.8    8.2    80   12.7 
2026-08-04 00:00 UT   19 22 15.0   -22 40 49     1.606    2.574  157.6    8.6    81   12.7 
2026-08-05 00:00 UT   19 21 22.6   -22 43 10     1.610    2.572  156.5    9.1    81   12.8 
2026-08-06 00:00 UT   19 20 31.3   -22 45 27     1.613    2.570  155.3    9.5    81   12.8 
2026-08-07 00:00 UT   19 19 41.3   -22 47 41     1.617    2.568  154.1    9.9    81   12.8 
2026-08-08 00:00 UT   19 18 52.6   -22 49 50     1.621    2.566  153.0   10.3    81   12.8 
2026-08-09 00:00 UT   19 18 05.1   -22 51 56     1.626    2.564  151.8   10.8    81   12.8 
2026-08-10 00:00 UT   19 17 19.1   -22 53 58     1.630    2.563  150.7   11.2    81   12.9 
2026-08-11 00:00 UT   19 16 34.5   -22 55 55     1.635    2.561  149.6   11.6    81   12.9 
2026-08-12 00:00 UT   19 15 51.3   -22 57 49     1.640    2.559  148.4   12.0    81   12.9 
2026-08-13 00:00 UT   19 15 09.7   -22 59 38     1.645    2.557  147.3   12.4    82   12.9 
2026-08-14 00:00 UT   19 14 29.7   -23 01 24     1.650    2.555  146.2   12.7    82   12.9 
2026-08-15 00:00 UT   19 13 51.2   -23 03 05     1.656    2.553  145.1   13.1    82   13.0 
2026-08-16 00:00 UT   19 13 14.4   -23 04 43     1.662    2.552  144.0   13.5    82   13.0 
2026-08-17 00:00 UT   19 12 39.3   -23 06 16     1.668    2.550  142.9   13.9    82   13.0 
2026-08-18 00:00 UT   19 12 05.9   -23 07 46     1.674    2.548  141.8   14.2    82   13.0 
2026-08-19 00:00 UT   19 11 34.2   -23 09 11     1.681    2.546  140.7   14.6    82   13.0 
2026-08-20 00:00 UT   19 11 04.2   -23 10 33     1.687    2.544  139.6   14.9    82   13.1 
2026-08-21 00:00 UT   19 10 36.0   -23 11 50     1.694    2.542  138.6   15.3    82   13.1 
2026-08-22 00:00 UT   19 10 09.6   -23 13 04     1.701    2.540  137.5   15.6    82   13.1 
2026-08-23 00:00 UT   19 09 45.0   -23 14 14     1.708    2.538  136.4   15.9    82   13.1 
2026-08-24 00:00 UT   19 09 22.3   -23 15 20     1.715    2.537  135.4   16.3    82   13.1 
2026-08-25 00:00 UT   19 09 01.3   -23 16 22     1.723    2.535  134.3   16.6    82   13.2 
2026-08-26 00:00 UT   19 08 42.2   -23 17 21     1.730    2.533  133.3   16.9    83   13.2 


    Terminology:
            
    delta:  distance between minor planet and earth in AU
    radius: distance between minor planet and sun in AU
    magn:   magnitude (brightness) estimate    
    ra:     right ascension in hours (24h = 360deg)
    dec:    declination in degrees
    elong:  elongation in degrees (angle sun-earth-minor planet)    
    phase:  phase angle in degrees (angle sun-minor planet-earth)        
    AU:     Astronomical Unit (mean distance between earth and sun: 149597870.7 km
    

Orbital elements provided by the MPC (Minor Planet Center).
Calculations by a modified version of AAPlus, a C# implementation of the AA+ project by PJ Naughter from the algorithms presented in the book "Astronomical Algorithms" by Jean Meeus.
NGC2000 dso catalog and star labels from VizieR as provided by the Strasbourg astronomical Data Center.
Tycho2 catalog from the ESO archive.